Regional Weather Roundup
Issued by NWS Huntsville, AL

Home | Current Version | Previous Version | Text Only | Print | Product List | Glossary On
Versions: 1 2 3 4 5 6 7 8 9 10 11 12 13 14 15 16 17 18 19 20 21 22 23 24 25 26 27 28 29 30 31 32 33 34 35 36 37 38 39 40 41 42 43 44 45 46 47 48 49 50
778
ASUS44 KHUN 281010
RWRHUN

WEATHER ROUNDUP FOR THE TENNESSEE VALLEY
NATIONAL WEATHER SERVICE HUNTSVILLE AL
500 AM CDT TUE MAR 28 2017

ALZ001>004-281100-
NORTHWEST ALABAMA

CITY           SKY/WX    TMP DP  RH WIND       PRES   REMARKS
COURTLAND HCN    N/A     57 N/A N/A CALM        N/A
RUSSELLVILLE     N/A     57 N/A N/A MISG        N/A
SHOALS AIRPORT CLOUDY    61  58  90 NW5       29.93R FOG
SHOALS TVA RES   N/A     59 N/A N/A MISG        N/A
$$

ALZ005>007-016-281100-
NORTH CENTRAL ALABAMA

CITY           SKY/WX    TMP DP  RH WIND       PRES   REMARKS
CULLMAN AG STN   N/A     59 N/A N/A CALM        N/A
DECATUR AP     FOG       55  55 100 CALM      29.93R VSB 3/4
HUNTSVILLE AP  PTCLDY    59  59 100 CALM      29.92R
MERIDIANVILLE  MOCLDY    57  55  94 CALM      29.92R
REDSTONE ARSN  PTCLDY    57  55  94 CALM      29.91S FOG
VINEMONT AP    PTSUNNY   60  59  97 S6        29.95R
$$

ALZ008>010-281100-
NORTHEAST ALABAMA

CITY           SKY/WX    TMP DP  RH WIND       PRES   REMARKS
ALBERTVILLE    CLOUDY    59  59 100 CALM      29.93R
FORT PAYNE     FOG       54  52  94 CALM      29.93S VSB 1/4
SCOTTSBORO AP  FOG       55  55 100 CALM      29.94R VSB 1/2
SCOTTSBORO HCN   N/A     55 N/A N/A MISG        N/A
VALLEY HEAD      N/A     54 N/A N/A MISG        N/A
$$

TNZ076-096-097-281100-
SOUTHEASTERN MIDDLE TENNESSEE

CITY           SKY/WX    TMP DP  RH WIND       PRES   REMARKS
TULLAHOMA      CLOUDY    55  55 100 W7          N/A
WINCHESTER     CLEAR     55  54  94 CALM      29.92R
$$

...SURROUNDING SITES...

CITY           SKY/WX    TMP DP  RH WIND       PRES   REMARKS
ATLANTA        LGT RAIN  62  61  96 SW3       29.97S
ANNISTON       RAIN      63  63 100 NE3       29.95S
BIRMINGHAM     LGT RAIN  64  64 100 CALM      29.96S
CHATTANOOGA    FOG       55  54  96 CALM      29.93R VSB 1/4
CORINTH        CLOUDY    59  57  94 CALM      29.92R FOG
DALTON         CLOUDY    55  55 100 S3        29.94R
GADSDEN        CLOUDY    61  60  97 CALM      29.95R
GOLDEN TRNGL   PTCLDY    66  59  77 CALM      29.88R
HALEYVILLE     FAIR      59  59 100 SW3       29.95R FOG
JACKSON TN     CLOUDY    57  57 100 CALM      29.94R FOG
MEMPHIS        MOCLDY    61  57  87 N5        29.93R
NASHVILLE      CLOUDY    58  56  93 CALM      29.92R
OXFORD MS      FAIR      59  57  94 CALM      29.94R
ROME           CLOUDY    60  58  92 CALM      29.93S
SAVANNAH       CLOUDY    59  59 100 N6        29.92R FOG
TUPELO         MOCLDY    60  58  92 N3        29.91R
TUSCALOOSA     CLOUDY    66  65  96 S6        29.94R
$$

...GULF COAST WEATHER...

CITY           SKY/WX    TMP DP  RH WIND       PRES   REMARKS
GULFPORT       PTCLDY    72  69  90 S5        29.96R
PASCAGOULA     MOCLDY    71  67  87 S3        29.96S
MOBILE         CLOUDY    68  66  93 SW3       29.98R FOG
GULF SHORES    CLOUDY    69  69 100 S8        29.97S
PENSACOLA      CLOUDY    71  68  90 S9        29.97S
DESTIN         CLEAR     71  71 100 CALM      29.98S
PANAMA CITY    MOCLDY    68  68  98 S5        30.00R
APPALACHICOLA  PTCLDY    68  68 100 SW6       30.00S
$$





USA.gov is the U.S. government's official web portal to all federal, state and local government web resources and services.